Location: Dodge City Community College Clyde Tombaugh Astronomy Center
(37.7756°N, 100.0412°W)
Time: 21:09:17
(UTC+00:00)

N. Korean satellite - Pass Details

Date: 10 December 2022
Orbit: 407 x 442 km, 97.3° (Epoch: 04 February)

Event Time Altitude Azimuth Distance (km) Brightness Sun altitude
Rises 12:02:51 0° 9° (N) 2,483 10.1 -19.5°
Reaches altitude 10° 12:04:55 10° 7° (N) 1,596 9.1 -19.1°
Maximum altitude 12:08:19 72° 283° (WNW) 474 6.2 -18.5°
Drops below altitude 10° 12:11:38 10° 199° (SSW) 1,550 9.1 -17.8°
Sets 12:13:37 0° 197° (SSW) 2,403 10.1 -17.5°
